Simultaneous Nadir Overpasses (SNOs) Predictions

Prediction of SNOs between GOES-16 and NOAA-19 Satellite Orbit:

Table of predicted SNOs for the next 14.0 days since TLE Epoch: 4/30/2022
Index Date Time (GOES-16) GOES-16 Lat,Lon NOAA-19 Lat,Lon Distance(km) Time Diff (sec)
1 05/01/2022 00:49:00 -0.06, -75.18 -0.39, -76.63 165.74 80
2 05/02/2022 00:34:31 -0.06, -75.18 0.27, -73.75 163.44 80
3 05/03/2022 00:22:41 -0.05, -75.18 0.94, -70.86 492.67 80
4 05/04/2022 12:57:49 0.05, -75.20 0.88, -78.63 392.79 80
5 05/05/2022 12:46:00 0.05, -75.20 0.16, -75.76 63.44 80
6 05/06/2022 12:31:31 0.04, -75.21 -0.50, -72.88 266.07 80
7 05/09/2022 00:54:48 -0.04, -75.21 -0.65, -77.76 292.16 80
8 05/10/2022 00:40:19 -0.03, -75.21 0.02, -74.88 38.13 80
9 05/11/2022 00:28:29 -0.03, -75.22 0.70, -71.99 368.47 80
10 05/13/2022 12:51:48 0.03, -75.27 0.43, -76.88 184.95 80
